Content
SEND FEEDBACK

Daily
Averages
Monthly
Summary
United States of America

PUT IN BAY, OHIO


Home > North America > United States > Ohio
Elevation: 561 feet     Latitude: 41 39N     Longitude: 082 48W

WEATHER
 
SELECT A DAY
Number of Records: 125,284;   Date Range: 12/10/00 - 11/26/14
 
SHARE

PRINT THIS DATA

[ ← Previous Day ]
WEATHER ALMANAC - MAY 4, 2013
[ Next Day → ]
[ °C ]   °F
Weather ElementAverageHighLow
Temperature59.8 °F67.1 °F (5:00 pm)54.1 °F (4:00 am)
Dewpoint41 °F46 °F (2:00 am)36 °F (8:00 pm)
Humidity49.9 %74 % (4:00 am)26 % (2:00 pm)
Barometer30.09 in30.13 in (8:00 am)30.06 in (5:00 pm)
Wind Speed7.3 mph9.2 mph (1:00 am)
Wind Gust17.3 mph (6:00 pm)
Weather ElementAverage
Wind DirectionESE (114.2 °)

Weather ElementTotal
Precipitation---
Heating Degree Days4.4 (Base 65)
Growing Degree Days10.6 (Base 50)
Averaged from 24 records on May 4, 2013
WEATHER CONDITIONS BREAKOUT
WIND DIRECTION BREAKOUT
WEATHER BY HOUR - MAY 4, 2013
[ °C ]   °F
Local TimeTemperatureDewpointHumidityBarometerVisibilityWind DirectionWind SpeedGust SpeedPrecipitationEventsConditions
1:00 AM61.3 °F44.2 °F53 %30.07 inSE (130°)9.2 mph
2:00 AM57.0 °F46.0 °F56 %30.08 inSE (130°)8.1 mph
2:00 AM57.0 °F45.7 °F66 %30.08 inSE (130°)8.1 mph
3:00 AM55.6 °F45.7 °F69 %30.08 inSE (130°)6.9 mph
4:00 AM54.1 °F45.9 °F74 %30.08 inSE (130°)5.8 mph
5:00 AM54.1 °F46.0 °F74 %30.09 inSE (130°)5.8 mph
6:00 AM54.1 °F44.8 °F71 %30.10 inSE (130°)5.8 mph
7:00 AM54.1 °F44.6 °F70 %30.12 inSE (130°)5.8 mph
8:00 AM56.0 °F43.0 °F52 %30.13 inSE (130°)6.9 mph
8:00 AM56.1 °F43.2 °F62 %30.13 inSE (130°)6.9 mph
9:00 AM57.9 °F41.9 °F55 %30.13 inSE (130°)8.1 mph
10:00 AM57.9 °F40.8 °F53 %30.13 inESE (120°)8.1 mph
11:00 AM59.9 °F39.2 °F46 %30.13 inSE (130°)9.2 mph
12:00 PM60.3 °F37.0 °F42 %30.12 inSE (130°)8.1 mph
1:00 PM61.7 °F37.0 °F40 %30.12 inEast (100°)6.9 mph
2:00 PM64.0 °F37.0 °F26 %30.10 inEast (100°)8.1 mph
2:00 PM63.5 °F37.4 °F38 %30.10 inEast (100°)8.1 mph
3:00 PM66.0 °F36.7 °F34 %30.09 inEast (100°)5.8 mph
4:00 PM66.9 °F40.6 °F38 %30.08 inEast (90°)5.8 mph
5:00 PM67.1 °F39.2 °F36 %30.06 inEast (90°)8.1 mph
6:00 PM66.0 °F38.3 °F36 %30.06 inEast (90°)9.2 mph17.3 mph
7:00 PM64.0 °F36.9 °F37 %30.06 inEast (80°)8.1 mph
8:00 PM60.0 °F36.0 °F29 %30.06 inEast (90°)5.8 mph
8:00 PM60.1 °F36.1 °F41 %30.06 inEast (90°)5.8 mph
Hourly data recorded from CXHA, located miles away from Put In Bay, Ohio







STORIES FROM OUR PARTNERS